Date,TemperatureHighF,TemperatureAvgF,TemperatureLowF,DewpointHighF,DewpointAvgF,DewpointLowF,HumidityHigh,HumidityAvg,HumidityLow,PressureMaxIn,PressureMinIn,WindSpeedMaxMPH,WindSpeedAvgMPH,GustSpeedMaxMPH,PrecipitationSumIn
2014-1-1,53.5,38.2,29.8,35.0,28.2,23.0,80,68,44,30.38,30.29,17,7,19,0.00
2014-1-2,58.8,43.9,32.2,33.6,29.1,26.7,81,59,36,30.32,30.03,26,11,30,0.00
2014-1-3,48.5,39.0,22.8,34.5,23.6,1.1,85,58,15,30.24,30.00,24,6,31,0.00
2014-1-4,44.0,28.1,18.8,20.1,16.5,11.9,88,65,27,30.53,30.24,18,6,18,0.00
2014-1-5,46.5,30.8,21.7,17.1,13.1,10.4,63,50,23,30.58,30.47,20,6,21,0.00
2014-1-6,45.4,36.5,26.1,14.4,11.3,7.9,59,35,25,30.48,30.19,19,7,21,0.00
2014-1-7,45.7,40.2,37.0,38.0,28.9,13.0,89,66,35,30.19,30.01,26,10,29,0.02
2014-1-8,46.2,41.6,36.7,36.9,35.6,33.5,90,79,64,30.05,29.82,31,11,33,0.03
2014-1-9,45.0,38.6,31.8,34.1,31.1,26.5,84,75,62,30.12,29.90,44,13,52,0.02
2014-1-10,43.9,41.5,39.3,34.7,30.3,25.1,77,65,50,30.14,30.01,37,12,37,0.00
2014-1-11,44.3,34.4,30.3,36.8,31.6,28.6,97,90,66,30.01,29.66,29,12,51,0.22
2014-1-12,39.3,34.8,30.3,35.2,31.8,27.9,95,89,84,30.43,30.00,30,12,33,0.05
2014-1-13,44.9,38.4,31.4,33.9,31.5,27.6,88,77,62,30.67,30.50,25,10,32,0.00
2014-1-14,51.4,38.0,28.7,29.9,27.3,23.8,90,68,34,30.73,30.61,27,12,30,0.00
2014-1-15,55.9,39.3,28.9,28.0,23.7,18.1,82,58,24,30.62,30.50,29,13,32,0.00
2014-1-16,60.0,40.6,27.0,25.0,20.8,11.1,75,49,15,30.56,30.40,24,7,26,0.00
2014-1-17,59.6,39.6,29.0,24.6,21.3,19.0,70,51,22,30.41,30.27,24,9,27,0.00
2014-1-18,59.8,40.7,29.6,28.1,23.2,19.4,71,52,22,30.34,30.19,22,7,24,0.00
2014-1-19,56.6,42.0,30.5,26.5,23.5,20.9,72,50,26,30.29,30.14,26,9,29,0.00
2014-1-20,34.8,27.7,0.0,27.9,24.8,0.0,96,89,69,30.48,30.29,8,2,8,0.00
2014-1-21,55.1,36.7,21.2,32.9,25.1,19.8,97,66,29,30.49,30.32,18,6,22,0.00
2014-1-22,45.2,33.9,27.1,32.4,27.8,18.3,95,79,57,30.38,30.30,14,6,18,0.00
2014-1-23,29.6,24.0,22.6,28.5,22.7,21.1,96,95,94,30.64,30.38,13,3,15,0.00
2014-1-24,33.7,27.4,19.1,29.5,24.9,17.4,96,90,79,30.67,30.57,10,3,13,0.00
2014-1-25,55.9,38.4,24.5,27.2,22.9,20.5,92,58,30,30.58,30.34,23,5,23,0.00
2014-1-26,60.8,40.9,27.2,29.5,23.3,18.1,90,54,19,30.26,30.10,27,8,29,0.00
2014-1-27,28.3,24.5,21.3,27.6,23.0,19.9,97,94,90,30.44,30.25,9,2,10,0.00
2014-1-28,43.7,37.0,24.9,42.4,35.5,23.7,97,94,91,30.44,30.10,23,5,24,0.15
2014-1-29,45.3,41.2,37.4,43.7,34.8,27.3,96,79,56,29.93,29.79,45,11,49,0.05
2014-1-30,41.4,34.4,26.9,25.3,23.1,18.4,82,64,42,29.97,29.86,16,6,19,0.01
2014-1-31,39.3,32.9,26.9,25.2,22.8,20.8,84,67,50,30.16,30.05,15,6,17,0.00
2014-2-1,42.5,31.1,22.7,24.7,21.2,14.6,88,69,34,30.20,30.06,19,7,21,0.00
2014-2-2,39.3,30.6,25.2,27.3,24.2,19.8,94,78,56,30.04,29.91,19,4,23,0.00
2014-2-3,34.5,28.0,22.3,26.0,21.3,14.2,94,77,46,30.13,29.95,24,5,26,0.04
2014-2-4,24.3,19.3,12.5,22.1,17.0,9.9,94,91,84,30.37,30.12,13,5,15,0.00
2014-2-6,6.3,6.3,6.3,3.5,3.5,3.5,88,88,88,29.99,29.98,2,2,5,0.00
2014-2-7,31.1,23.4,9.6,29.6,21.7,7.3,95,93,90,29.99,29.74,13,5,15,0.04
2014-2-8,14.9,10.6,8.4,13.2,8.3,5.8,93,90,89,30.17,29.91,9,2,9,0.00
2014-2-9,44.9,36.8,25.2,36.8,32.9,24.2,97,86,70,30.17,30.07,21,5,21,0.50
2014-2-10,46.0,36.5,26.6,36.3,31.2,25.1,96,82,61,30.25,30.10,30,12,30,0.01
2014-2-11,44.1,39.3,34.9,36.7,33.4,28.5,94,80,64,30.20,29.86,31,10,31,0.46
2014-2-12,44.9,40.8,36.7,42.0,38.8,34.9,95,93,80,29.98,29.82,29,10,34,0.90
2014-2-13,45.5,42.3,38.1,39.0,33.3,26.3,90,71,47,30.13,29.89,30,8,32,0.07
2014-2-14,41.1,38.1,35.2,39.4,36.3,33.8,95,93,90,30.02,29.81,19,8,25,0.65
2014-2-15,53.0,41.0,34.1,45.0,37.0,23.9,97,86,58,29.96,29.51,36,9,42,0.29
2014-2-16,43.4,36.0,30.6,27.5,25.2,22.0,84,65,48,30.07,29.73,33,10,40,0.00
2014-2-17,45.1,38.6,35.1,35.0,29.9,24.5,91,71,54,30.02,29.81,36,10,41,0.02
2014-2-18,46.5,38.4,29.6,38.2,32.2,15.1,95,78,52,30.03,29.76,41,12,48,0.09
2014-2-19,37.1,31.2,25.6,26.1,22.3,16.6,92,70,44,30.27,29.97,28,11,32,0.01
2014-2-20,41.3,35.4,30.5,33.6,30.0,25.4,90,81,64,30.28,30.22,26,12,29,0.00
2014-2-21,46.8,38.2,31.5,32.5,26.7,14.8,90,67,29,30.24,30.14,18,6,20,0.00
2014-2-22,45.2,34.2,29.0,29.2,24.0,19.4,83,67,42,30.15,30.04,20,8,22,0.00
2014-2-23,52.1,39.7,31.1,36.5,29.8,21.6,85,70,30,30.05,29.93,31,12,37,0.00
2014-2-24,52.8,42.2,31.6,43.7,37.9,30.9,97,85,68,30.11,30.00,21,6,23,0.00
2014-2-25,31.7,28.1,24.8,31.0,27.3,23.8,98,97,96,30.23,30.10,11,4,12,0.00
2014-2-26,28.4,26.0,24.1,27.9,25.1,23.1,98,96,95,30.22,29.86,7,2,8,0.00
2014-2-27,39.2,32.9,27.1,38.7,32.2,26.4,99,97,94,29.86,29.78,18,3,18,0.13
2014-2-28,44.6,34.3,29.9,39.5,33.0,29.1,98,95,76,29.78,29.52,15,4,15,0.00
2014-3-1,32.2,30.8,29.7,31.5,30.2,29.2,98,97,95,29.84,29.56,9,2,10,0.11
2014-3-2,47.4,40.5,29.6,44.0,37.6,29.1,99,90,75,29.89,29.74,29,8,31,0.16
2014-3-3,44.1,40.0,38.3,40.5,36.9,34.4,94,89,76,29.98,29.77,31,11,34,0.24
2014-3-4,54.2,45.5,36.1,38.6,35.8,33.2,93,70,46,30.04,29.91,29,8,31,0.00
2014-3-5,54.8,47.6,43.1,47.0,41.7,36.4,92,80,69,29.91,29.55,28,10,30,0.23
2014-3-6,45.8,40.7,37.1,37.5,34.8,33.0,89,80,63,30.15,29.67,42,14,51,0.07
2014-3-7,56.2,43.5,35.4,35.1,30.6,25.2,84,63,32,30.30,30.15,21,8,25,0.00
2014-3-8,61.2,46.6,35.2,45.0,34.5,27.3,81,64,33,30.19,29.96,31,9,31,0.01
2014-3-9,55.4,48.5,41.9,48.4,44.4,38.4,96,86,68,29.97,29.89,28,10,34,0.29
2014-3-10,46.0,38.4,29.9,38.6,30.7,22.7,96,75,45,30.42,29.89,27,7,29,0.08
2014-3-11,49.5,36.6,24.9,30.7,24.7,17.2,87,65,28,30.57,30.42,18,5,24,0.00
2014-3-12,62.9,43.1,26.7,26.4,22.4,11.1,87,51,13,30.49,30.15,23,8,28,0.00
2014-3-13,59.8,46.0,31.1,30.8,25.8,14.6,79,49,22,30.15,30.00,21,9,23,0.00
2014-3-14,52.3,45.6,38.9,39.4,31.8,23.8,84,60,34,30.31,30.02,27,9,31,0.00
2014-3-15,65.3,48.2,33.8,29.9,25.8,16.3,79,47,15,30.37,30.27,28,10,32,0.00
2014-3-16,64.9,51.4,38.1,35.2,23.4,8.9,88,39,12,30.29,29.77,50,14,50,0.01
2014-3-17,42.2,34.3,28.1,34.8,22.0,14.2,90,63,33,30.32,29.81,27,9,33,0.02
2014-3-18,46.0,34.2,21.9,24.7,20.7,14.7,90,61,29,30.34,30.20,17,5,18,0.00
2014-3-19,54.3,39.9,28.2,28.6,23.4,19.9,72,54,29,30.21,30.07,31,10,32,0.00
2014-3-20,43.5,35.3,28.2,27.9,20.1,13.4,84,56,32,30.30,30.11,18,5,24,0.00
2014-3-21,43.2,32.7,21.0,21.7,18.7,16.0,82,57,39,30.30,30.19,18,5,21,0.00
2014-3-22,53.9,37.5,22.0,22.6,18.0,13.1,82,50,21,30.34,30.19,15,5,18,0.00
2014-3-23,58.1,42.1,27.4,25.6,19.1,11.2,71,44,16,30.28,30.19,16,6,19,0.00
2014-3-24,66.7,47.7,30.8,30.8,23.0,16.9,67,42,15,30.23,29.91,22,8,25,0.00
2014-3-25,50.6,42.2,34.1,39.9,30.0,23.6,87,62,41,29.92,29.62,33,9,39,0.05
2014-3-26,46.4,37.7,32.4,38.9,32.2,29.6,93,81,59,29.66,29.53,31,8,37,0.05
2014-3-27,45.9,37.0,32.8,36.5,31.8,29.4,94,82,56,29.87,29.63,29,12,32,0.04
2014-3-28,49.1,41.3,35.7,43.5,37.9,33.3,94,88,74,29.95,29.76,34,10,34,0.27
2014-3-29,47.9,40.1,34.8,37.1,32.7,28.5,94,76,49,29.90,29.80,35,12,41,0.02
2014-3-30,44.6,36.6,31.4,32.0,28.4,18.2,93,74,35,29.99,29.89,25,8,25,0.02
2014-3-31,47.6,36.3,28.3,33.6,29.0,23.3,95,77,39,29.98,29.69,25,5,26,0.01
2014-4-1,35.4,32.7,29.9,33.0,31.4,28.6,97,95,85,29.93,29.69,12,4,12,0.28
2014-4-2,50.0,37.9,29.5,34.8,30.2,26.2,96,76,42,30.06,29.93,15,6,17,0.04
2014-4-3,50.4,40.6,31.2,34.3,29.5,21.8,90,68,33,30.05,29.92,22,8,26,0.00
2014-4-4,50.8,41.1,34.9,32.9,29.4,18.4,84,65,28,29.98,29.87,27,8,32,0.00
2014-4-5,50.5,42.5,36.1,37.8,34.7,31.8,87,75,53,30.13,29.97,25,10,31,0.00
2014-4-6,59.9,49.9,41.6,40.2,36.2,26.0,87,62,29,30.27,30.12,22,8,25,0.00
2014-4-7,73.0,53.3,35.7,39.0,34.7,28.7,89,56,20,30.27,30.08,21,7,22,0.00
2014-4-8,71.9,55.4,41.6,41.5,35.1,24.4,85,52,18,30.13,29.95,24,10,29,0.00
2014-4-9,57.9,47.5,37.7,42.3,37.4,31.4,86,69,40,30.11,30.00,18,6,23,0.00
2014-4-10,62.6,48.7,31.3,34.5,27.7,20.6,92,50,23,30.16,30.04,17,6,18,0.00
2014-4-11,66.8,51.4,35.9,33.4,27.7,20.6,76,44,22,30.07,29.89,17,6,20,0.00
2014-4-12,59.5,46.0,32.1,33.8,25.9,9.8,77,49,14,30.09,29.88,24,6,26,0.00
2014-4-13,56.9,51.8,39.0,27.7,24.1,21.6,61,34,26,30.26,30.09,15,7,19,0.00
2014-4-14,68.6,55.6,32.6,34.1,25.5,12.8,69,35,12,30.19,30.00,21,8,26,0.00
2014-4-15,51.5,47.4,41.0,31.4,27.7,24.0,65,47,35,30.08,30.03,19,8,22,0.00
2014-4-16,57.2,48.8,31.9,35.9,31.9,26.9,85,53,39,30.09,29.98,17,7,19,0.00
2014-4-17,48.2,45.5,42.2,43.9,35.7,32.1,86,68,62,29.91,29.82,28,10,30,0.03
2014-4-18,57.2,44.7,30.6,32.6,22.8,9.4,88,48,20,30.08,29.91,16,5,24,0.00
2014-4-19,58.1,44.6,35.5,35.1,28.2,12.6,76,55,17,30.20,29.84,37,11,42,0.00
2014-4-20,65.7,49.3,33.1,32.5,29.1,23.4,82,51,22,30.27,30.08,20,6,24,0.00
2014-4-21,63.5,48.7,39.9,43.4,34.4,28.6,94,60,33,30.08,29.71,27,6,34,0.09
2014-4-22,46.6,39.8,35.9,38.3,27.9,17.5,93,65,33,29.98,29.74,27,8,28,0.05
2014-4-23,46.9,40.4,34.2,40.3,34.9,27.6,89,81,68,30.00,29.85,33,11,35,0.05
2014-4-24,51.7,44.2,38.9,40.5,36.0,29.2,91,74,45,29.89,29.79,35,12,38,0.08
2014-4-25,43.7,37.0,29.6,36.8,31.8,26.6,96,82,60,29.85,29.76,20,5,27,0.12
2014-4-26,46.4,38.1,28.4,33.8,24.9,12.2,91,63,28,29.86,29.77,26,8,36,0.04
2014-4-27,45.8,39.0,34.3,33.8,28.3,20.2,91,67,37,30.14,29.74,36,11,39,0.03
2014-4-28,58.1,43.3,29.4,30.9,24.4,18.9,83,52,23,30.39,30.14,22,6,23,0.00
2014-4-29,65.5,50.1,30.8,34.2,29.7,24.9,79,48,27,30.51,30.38,18,6,19,0.00
2014-4-30,76.6,57.8,37.2,36.5,27.7,9.5,74,38,8,30.45,30.16,29,7,31,0.00
2014-5-1,82.4,62.6,40.5,37.5,29.2,11.6,66,35,7,30.19,29.95,20,7,20,0.00
2014-5-2,75.8,61.5,48.1,43.5,38.0,28.5,69,46,19,30.02,29.75,20,7,23,0.00
2014-5-3,59.6,51.7,45.0,43.5,35.7,30.1,80,55,38,29.81,29.71,26,9,29,0.00
2014-5-4,53.7,46.7,40.0,44.0,36.1,32.6,87,67,47,29.89,29.74,38,10,38,0.11
2014-5-5,50.5,42.4,36.1,39.3,34.3,30.2,88,74,49,30.01,29.89,24,8,25,0.14
2014-5-6,52.8,42.5,31.2,34.8,31.1,28.5,90,66,41,30.02,29.93,30,8,32,0.00
2014-5-7,60.7,45.8,29.9,35.7,30.2,26.1,90,59,28,30.00,29.86,16,5,18,0.00
2014-5-8,54.6,47.6,42.6,46.0,39.6,34.8,85,74,62,29.88,29.68,25,10,29,0.03
2014-5-9,51.4,44.1,36.2,38.5,33.1,28.3,90,66,42,30.02,29.78,32,11,35,0.03
2014-5-10,49.5,40.4,32.6,34.8,30.4,25.8,94,70,42,30.25,29.99,33,9,34,0.00
2014-5-11,58.8,46.3,32.5,33.9,30.7,28.5,89,58,33,30.31,30.22,19,6,20,0.00
2014-5-12,63.9,51.6,35.7,35.2,29.4,22.2,80,46,21,30.34,30.25,16,6,21,0.00
2014-5-13,73.1,57.5,36.4,34.3,30.3,27.6,75,39,19,30.36,30.24,16,6,21,0.00
2014-5-14,79.6,63.8,45.0,38.1,33.2,28.5,62,35,16,30.30,30.08,18,6,19,0.00
2014-5-15,82.2,66.2,49.2,44.8,39.4,33.8,65,40,18,30.10,29.88,21,7,23,0.00
2014-5-16,70.1,60.7,50.3,42.8,31.8,17.5,53,35,14,29.94,29.87,25,8,28,0.00
2014-5-17,66.8,53.9,39.4,41.6,35.1,28.4,80,52,27,29.95,29.77,22,6,29,0.00
2014-5-18,53.9,47.6,40.9,44.7,37.1,32.6,90,68,47,29.90,29.77,26,8,28,0.12
2014-5-19,58.8,48.5,41.0,44.9,38.6,35.3,91,70,44,29.99,29.89,18,6,22,0.05
2014-5-20,64.9,53.4,38.4,44.2,38.1,27.3,92,60,27,30.03,29.97,25,6,25,0.00
2014-5-21,71.2,57.3,38.5,46.5,37.9,27.6,92,54,21,30.03,29.94,24,7,28,0.00
2014-5-22,77.3,62.4,42.9,47.0,40.0,34.1,81,49,23,30.02,29.88,15,5,17,0.00
2014-5-23,69.3,59.0,50.0,50.2,46.5,41.9,80,64,39,30.02,29.90,17,6,21,0.00
2014-5-24,70.0,56.2,39.6,44.7,40.0,33.7,95,59,29,30.07,29.97,17,5,20,0.00
2014-5-25,73.9,59.0,44.8,44.1,39.9,32.0,84,53,25,30.02,29.85,28,8,30,0.00
2014-5-26,65.6,55.9,46.9,43.7,38.1,31.7,80,54,30,30.04,29.93,20,7,25,0.00
2014-5-27,59.4,49.1,39.1,40.8,35.4,29.9,86,61,34,30.05,29.96,21,6,24,0.00
2014-5-28,53.3,43.7,33.6,38.3,33.0,29.3,88,67,45,30.21,30.03,23,5,28,0.06
2014-5-29,64.7,50.6,32.5,35.4,30.1,24.1,88,51,23,30.23,30.05,16,6,17,0.00
2014-5-30,73.1,56.8,39.1,44.0,35.3,28.3,76,48,19,30.07,29.80,26,6,31,0.00
2014-5-31,69.2,57.1,42.3,44.1,39.7,32.7,87,55,29,29.98,29.88,19,6,21,0.00
2014-6-1,74.6,59.8,42.9,44.3,40.2,34.8,86,53,25,29.98,29.80,17,5,19,0.00
2014-6-2,76.6,62.0,46.0,45.0,39.0,29.6,78,46,19,29.85,29.69,21,6,33,0.00
2014-6-3,70.8,58.9,47.7,44.7,37.1,27.1,82,49,20,29.95,29.76,22,8,24,0.00
2014-6-4,76.6,59.3,40.3,38.0,30.1,14.7,74,40,11,30.01,29.91,25,7,27,0.00
2014-6-5,74.3,60.3,44.2,41.6,34.7,29.0,72,41,22,30.00,29.87,18,6,22,0.00
2014-6-6,73.8,60.4,41.4,37.8,30.8,21.5,77,37,15,29.99,29.91,23,6,23,0.00
2014-6-7,70.9,59.7,44.0,43.2,37.0,30.0,65,44,30,30.06,29.95,19,6,23,0.00
2014-6-8,74.3,61.5,43.0,47.8,40.5,34.5,80,50,25,30.10,29.94,17,5,21,0.00
2014-6-9,75.0,61.8,46.9,46.7,40.9,23.1,85,51,16,29.99,29.85,25,6,26,0.00
2014-6-10,70.5,58.0,44.7,40.5,35.9,28.2,79,47,25,29.97,29.88,29,9,31,0.00
2014-6-11,75.4,59.1,37.4,41.6,34.5,29.2,84,45,19,29.97,29.74,16,5,19,0.00
2014-6-12,66.1,56.5,46.7,43.7,37.7,30.0,77,52,27,29.84,29.67,33,11,38,0.00
2014-6-13,52.6,47.4,43.8,40.0,37.9,35.2,82,70,55,30.07,29.84,19,7,24,0.01
2014-6-14,60.9,49.2,37.3,37.4,34.8,29.7,85,60,33,30.07,29.93,21,6,21,0.00
2014-6-15,57.9,49.5,38.6,40.0,37.1,33.8,84,64,43,29.94,29.77,21,6,25,0.00
2014-6-16,52.4,44.9,36.8,38.0,32.9,26.5,84,64,39,29.98,29.79,24,6,31,0.02
2014-6-17,55.8,44.9,32.9,38.3,34.7,30.1,90,69,46,30.11,29.97,24,7,25,0.00
2014-6-18,70.5,55.0,38.5,44.3,39.3,35.4,89,60,30,30.11,29.93,20,7,21,0.00
2014-6-19,78.7,62.6,46.0,46.2,40.5,31.4,85,50,21,29.97,29.86,23,8,28,0.00
2014-6-20,68.0,58.5,48.1,46.3,41.8,36.0,80,56,32,29.99,29.91,23,7,25,0.00
2014-6-21,69.6,56.2,37.9,42.6,36.5,32.3,91,52,29,30.00,29.91,19,6,21,0.00
2014-6-22,76.3,62.3,45.6,40.3,32.5,23.9,65,37,15,30.01,29.87,18,6,19,0.00
2014-6-23,80.1,65.5,52.7,47.5,40.3,30.8,64,41,21,29.93,29.80,21,6,23,0.00
2014-6-24,70.4,61.3,51.1,49.4,46.3,43.2,89,60,39,29.96,29.91,19,6,25,0.01
2014-6-25,63.8,55.3,47.6,54.5,49.1,43.3,96,80,55,29.94,29.76,15,3,19,0.29
2014-6-26,66.2,57.4,51.7,53.3,49.3,43.7,96,76,46,29.80,29.75,20,6,20,0.02
2014-6-27,65.7,57.5,50.5,52.7,46.8,42.8,91,69,46,29.87,29.73,30,9,32,0.02
2014-6-28,69.4,58.3,47.9,44.8,42.3,36.1,84,58,31,29.97,29.86,20,7,23,0.00
2014-6-29,69.6,57.3,40.5,44.4,40.9,34.9,90,58,29,30.11,29.97,20,6,24,0.00
2014-6-30,79.1,63.2,41.9,45.2,40.1,32.9,88,49,20,30.12,29.95,19,5,19,0.00
2014-7-1,88.2,71.7,50.3,46.0,42.4,40.0,71,38,20,29.96,29.69,18,5,21,0.00
2014-7-2,84.7,73.7,64.2,56.4,48.7,43.9,75,43,25,29.80,29.66,20,6,25,0.00
2014-7-3,81.6,67.6,55.5,56.1,48.7,32.5,89,57,18,29.88,29.75,19,6,22,0.00
2014-7-4,84.5,66.5,51.6,48.8,42.9,34.1,80,48,17,29.90,29.80,19,6,21,0.00
2014-7-5,86.7,72.2,54.6,47.6,40.7,21.6,69,37,13,29.97,29.90,18,8,20,0.00
2014-7-6,85.9,72.0,56.0,51.5,45.6,34.3,67,42,16,30.01,29.92,21,7,23,0.00
2014-7-7,87.4,72.9,54.5,51.4,47.8,43.6,72,44,24,29.98,29.82,16,6,18,0.00
2014-7-8,91.8,76.4,61.1,55.7,51.7,48.6,65,44,25,29.86,29.74,32,5,37,0.00
2014-7-9,88.4,76.4,64.4,60.0,51.0,40.1,77,45,19,29.80,29.68,25,7,27,0.00
2014-7-10,89.6,73.7,55.9,49.1,39.2,17.9,71,36,10,29.78,29.67,24,8,26,0.00
2014-7-11,81.1,70.5,56.7,56.1,47.4,35.5,65,46,21,29.93,29.77,24,5,28,0.00
2014-7-12,91.2,75.6,56.7,55.2,47.9,36.1,80,44,15,30.00,29.90,22,6,22,0.00
2014-7-13,85.0,76.1,61.8,52.5,45.4,39.8,53,34,23,29.95,29.82,24,8,28,0.05
2014-7-14,88.3,75.7,56.3,52.8,47.3,43.3,69,39,22,29.94,29.85,21,7,24,0.00
2014-7-15,90.4,75.6,57.9,50.5,45.1,37.5,70,38,16,29.96,29.83,18,5,22,0.00
2014-7-16,92.6,78.2,62.1,53.2,47.1,40.5,61,36,18,29.88,29.72,20,7,21,0.00
2014-7-17,84.7,69.6,60.2,50.6,45.4,36.6,59,44,23,29.84,29.73,23,8,25,0.00
2014-7-18,86.1,69.8,53.6,47.3,37.7,14.5,58,36,8,29.92,29.83,23,8,26,0.00
2014-7-19,84.7,70.6,55.0,50.5,45.1,36.5,71,44,18,29.95,29.84,21,7,28,0.00
2014-7-20,82.3,69.1,57.9,53.2,46.9,29.3,68,47,25,29.84,29.67,24,9,32,0.00
2014-7-21,78.8,65.4,53.5,45.1,39.6,32.3,62,40,24,29.93,29.76,19,5,21,0.00
2014-7-22,75.8,65.6,59.0,61.4,54.1,44.5,86,67,43,29.94,29.82,21,6,31,0.13
2014-7-23,64.7,55.9,44.9,54.6,47.9,34.9,94,76,53,30.09,29.88,30,8,31,0.06
2014-7-24,67.8,54.9,42.2,44.8,39.7,34.8,78,58,38,30.21,30.08,17,6,20,0.00
2014-7-25,78.3,61.6,42.1,47.9,41.3,33.5,90,54,22,30.11,29.94,17,5,19,0.00
2014-7-26,83.8,68.5,49.8,48.8,42.9,34.9,78,44,21,30.03,29.93,17,6,20,0.00
2014-7-27,84.7,71.2,54.6,46.7,42.5,38.7,59,37,20,30.01,29.93,14,4,15,0.00
2014-7-28,91.5,74.1,57.2,51.0,45.3,38.9,62,39,17,29.99,29.89,19,7,23,0.00
2014-7-29,90.4,74.3,59.5,54.3,46.8,35.6,69,42,15,29.98,29.89,25,6,31,0.00
2014-7-30,90.9,75.8,61.1,51.8,45.2,31.1,61,37,14,29.96,29.87,25,8,34,0.00
2014-7-31,90.3,78.1,64.8,49.8,44.0,39.5,54,32,17,29.93,29.79,22,6,26,0.00
2014-8-1,88.4,75.8,62.1,55.3,48.1,42.7,64,40,21,29.91,29.76,25,6,28,0.01
2014-8-2,86.7,73.1,60.7,60.5,50.4,44.2,74,47,28,29.86,29.76,34,5,42,0.04
2014-8-3,83.1,71.0,57.4,56.9,50.9,45.4,77,52,30,29.92,29.80,19,6,19,0.00
2014-8-4,87.1,77.5,69.1,61.0,49.3,41.9,67,38,25,29.84,29.72,18,7,19,0.00
2014-8-5,83.8,73.8,62.2,60.9,48.5,39.2,77,45,24,29.90,29.79,22,7,22,0.00
2014-8-6,82.3,65.2,54.8,52.8,44.6,37.3,66,48,25,29.99,29.87,18,6,22,0.00
2014-8-7,81.9,67.2,54.8,51.8,47.1,33.5,83,53,22,29.95,29.82,19,6,23,0.00
2014-8-8,78.6,66.5,52.2,46.3,40.1,32.7,67,41,23,29.94,29.87,20,7,21,0.00
2014-8-9,81.2,66.4,48.6,44.3,38.7,33.4,70,40,21,30.01,29.93,17,6,20,0.00
2014-8-10,88.7,73.9,55.9,58.5,42.4,32.5,77,35,20,29.99,29.82,32,7,37,0.06
2014-8-11,91.0,72.2,59.3,58.0,50.7,35.9,80,53,15,29.92,29.75,29,7,41,0.11
2014-8-12,70.2,63.0,57.6,58.0,53.1,47.6,86,71,52,29.88,29.75,29,8,36,0.17
2014-8-13,70.3,57.5,51.7,54.3,50.1,42.9,93,78,43,29.97,29.84,23,6,35,0.36
2014-8-14,65.8,56.4,49.6,56.3,50.8,47.1,94,82,55,29.97,29.92,18,5,18,0.07
2014-8-15,75.6,63.0,50.0,55.9,51.2,48.1,94,68,41,29.99,29.93,17,5,21,0.00
2014-8-16,82.0,67.1,53.0,55.5,48.9,39.0,91,57,27,30.01,29.91,17,6,18,0.00
2014-8-17,82.7,69.0,54.3,52.8,47.0,26.9,76,49,14,29.99,29.85,21,7,24,0.00
2014-8-18,83.4,75.2,54.3,53.0,48.2,44.5,79,40,26,29.89,29.71,18,6,19,0.00
2014-8-19,79.6,68.6,59.0,57.7,51.0,43.5,81,56,29,29.73,29.63,27,8,29,0.00
2014-8-20,72.9,63.1,54.4,52.3,47.9,41.1,84,60,35,29.87,29.72,22,7,27,0.00
2014-8-21,74.1,60.6,46.8,46.2,39.9,13.5,89,53,12,29.94,29.86,20,7,21,0.00
2014-8-22,69.6,58.4,45.8,46.5,41.2,37.5,75,54,35,30.03,29.88,21,6,23,0.00
2014-8-23,71.2,60.5,46.7,48.9,44.1,40.5,85,57,34,30.08,29.97,20,6,23,0.00
2014-8-24,75.3,61.0,47.8,45.7,42.0,37.9,75,52,28,29.97,29.75,25,7,28,0.00
2014-8-25,72.6,61.8,51.3,48.0,44.3,40.4,77,55,34,29.97,29.88,20,6,23,0.00
2014-8-26,79.9,66.0,48.9,45.1,39.2,30.2,72,42,17,30.03,29.92,17,6,19,0.00
2014-8-27,88.0,70.9,53.7,50.5,44.8,39.2,65,42,22,29.99,29.87,20,8,21,0.00
2014-8-28,83.2,69.7,57.4,52.3,47.3,38.3,74,48,21,29.94,29.85,20,6,22,0.00
2014-8-29,80.2,65.1,51.3,48.9,44.0,35.9,79,50,21,29.89,29.76,22,7,25,0.00
2014-8-30,65.6,58.9,49.5,49.5,46.0,40.6,76,63,48,29.92,29.82,24,7,27,0.00
2014-8-31,67.1,55.4,43.8,43.9,42.0,40.0,89,63,39,30.02,29.91,19,5,20,0.00
2014-9-1,75.8,59.9,42.5,47.8,42.3,35.7,87,57,30,30.05,29.89,17,5,17,0.00
2014-9-2,77.9,61.0,45.8,48.8,42.6,32.8,87,56,20,29.89,29.72,24,8,28,0.00
2014-9-3,67.4,55.5,36.4,42.7,33.9,27.2,86,48,26,30.01,29.83,17,5,24,0.00
2014-9-4,68.9,55.1,39.8,41.9,36.5,32.6,82,53,27,30.07,29.96,20,6,22,0.00
2014-9-5,74.5,60.9,44.7,41.7,36.6,32.0,69,43,22,30.10,29.97,18,6,19,0.00
2014-9-6,80.0,64.6,44.5,37.6,33.0,29.6,59,33,17,30.04,29.83,17,5,17,0.00
2014-9-7,81.2,64.8,48.5,39.8,30.6,18.6,56,32,10,29.86,29.75,19,7,19,0.00
2014-9-8,80.1,63.9,48.8,41.1,32.6,23.7,62,34,13,29.83,29.71,23,7,23,0.00
2014-9-9,68.7,58.1,47.6,44.7,39.4,31.9,78,52,27,30.06,29.83,23,6,26,0.00
2014-9-10,70.3,56.4,42.4,42.3,38.7,31.6,83,54,32,30.13,30.02,19,6,24,0.00
2014-9-11,62.0,52.1,43.5,31.8,27.1,21.5,50,38,26,30.24,30.11,24,7,25,0.00
2014-9-12,76.0,56.1,34.3,33.3,27.8,20.1,68,38,19,30.15,29.91,16,6,17,0.00
2014-9-13,72.6,57.8,39.3,32.7,28.2,23.9,56,34,21,30.00,29.85,14,5,16,0.00
2014-9-14,79.3,62.3,45.0,38.6,31.6,25.5,53,33,21,29.92,29.83,19,6,19,0.00
2014-9-15,85.0,65.9,46.7,39.5,34.4,29.8,55,33,17,29.90,29.74,21,7,25,0.00
2014-9-16,84.1,67.9,51.7,41.4,35.3,25.8,52,33,12,29.81,29.69,21,6,27,0.00
2014-9-17,81.9,67.3,55.7,43.2,38.1,29.3,57,37,16,29.75,29.54,19,6,26,0.00
2014-9-18,69.9,61.5,54.8,52.9,49.0,42.6,84,65,44,29.90,29.61,20,7,24,0.02
2014-9-19,75.8,61.8,45.9,52.2,46.3,41.8,94,62,32,30.05,29.90,13,5,16,0.00
2014-9-20,79.2,65.1,49.2,50.0,46.3,42.5,79,53,32,30.02,29.87,14,5,16,0.00
2014-9-21,82.8,68.7,52.1,51.8,46.9,42.2,72,48,29,29.91,29.75,14,4,17,0.00
2014-9-22,80.3,67.9,58.9,53.6,49.3,43.7,77,54,28,29.86,29.76,22,8,25,0.00
2014-9-23,73.4,65.1,55.5,49.7,45.8,38.4,72,51,34,29.82,29.68,22,7,26,0.00
2014-9-24,67.9,56.6,48.9,53.7,48.1,38.0,97,77,34,29.86,29.67,14,4,17,0.46
2014-9-25,58.8,51.0,45.8,49.0,45.4,42.2,94,82,59,29.94,29.78,20,6,24,0.12
2014-9-26,61.3,51.3,42.5,44.3,41.2,38.6,90,70,45,30.03,29.94,17,7,20,0.00
2014-9-27,61.0,53.2,47.4,47.1,44.2,42.4,84,72,53,30.03,29.93,27,8,30,0.01
2014-9-28,64.0,57.0,51.5,46.8,44.8,43.1,78,64,52,29.95,29.87,22,8,25,0.00
2014-9-29,69.8,56.2,47.1,47.8,44.1,36.7,91,67,31,29.93,29.82,23,8,28,0.00
2014-9-30,56.2,48.3,37.7,40.1,37.2,33.8,89,67,44,30.14,29.92,30,8,33,0.00
2014-10-1,63.5,47.8,34.3,38.8,32.4,25.8,94,61,25,30.21,30.13,16,5,19,0.00
2014-10-2,67.1,52.3,39.4,37.8,32.4,22.4,84,52,22,30.28,30.16,22,8,23,0.00
2014-10-3,77.6,56.7,39.4,39.8,35.4,30.7,77,49,18,30.32,30.18,19,6,19,0.00
2014-10-4,80.4,65.6,43.7,39.4,33.3,25.9,69,34,15,30.22,30.07,24,8,27,0.00
2014-10-5,82.0,63.5,45.7,40.8,36.6,28.8,67,41,16,30.09,29.96,20,7,22,0.00
2014-10-6,82.1,59.1,49.0,43.1,40.3,37.5,73,53,21,30.01,29.86,22,9,24,0.00
2014-10-7,80.9,62.9,45.4,43.3,37.8,29.7,74,44,16,29.91,29.80,23,9,25,0.00
2014-10-8,73.8,58.3,43.7,42.3,37.3,28.8,81,50,20,29.95,29.84,21,8,24,0.00
2014-10-9,69.9,55.5,41.6,40.3,33.8,28.2,78,47,23,30.02,29.95,15,6,16,0.00
2014-10-10,72.4,57.5,40.5,41.7,36.2,27.8,74,47,27,30.06,29.99,24,9,25,0.00
2014-10-11,63.8,55.8,44.6,50.3,40.1,31.6,72,56,34,30.17,29.97,30,8,35,0.00
2014-10-12,66.5,49.4,36.0,38.2,31.1,11.9,88,56,12,30.27,30.08,17,6,20,0.00
2014-10-13,78.8,60.2,42.2,30.8,24.6,14.3,54,29,9,30.09,29.72,29,9,30,0.00
2014-10-14,59.8,52.8,46.5,45.0,36.5,24.1,94,57,29,29.78,29.53,15,5,18,0.04
2014-10-15,51.3,46.1,41.5,44.2,38.0,33.1,95,74,53,30.05,29.50,34,10,37,0.12
2014-10-16,63.0,48.9,40.7,38.2,35.5,33.3,81,62,34,30.05,29.87,18,5,20,0.00
2014-10-17,57.6,50.5,43.0,45.6,40.7,34.5,83,69,55,29.93,29.82,25,6,25,0.00
2014-10-18,68.5,56.4,48.1,46.1,44.0,41.1,82,65,42,30.00,29.84,21,7,22,0.00
2014-10-19,71.3,56.4,44.3,43.3,40.4,37.9,84,58,31,29.84,29.70,24,8,33,0.00
2014-10-20,59.2,50.1,42.5,47.6,41.2,36.4,88,72,57,29.86,29.67,22,6,24,0.04
2014-10-21,53.2,45.1,39.3,40.0,37.2,35.3,88,75,56,30.03,29.86,28,8,28,0.01
2014-10-22,58.4,50.4,44.5,46.9,41.4,37.5,92,72,53,29.94,29.72,34,11,35,0.14
2014-10-23,50.4,48.1,44.1,47.8,43.7,37.9,93,85,68,29.99,29.73,27,8,28,0.37
2014-10-24,53.7,45.7,43.2,48.0,43.2,41.4,98,91,81,30.01,29.78,15,3,16,0.13
2014-10-25,59.5,48.8,40.0,45.2,40.2,35.0,98,74,46,29.90,29.50,49,14,57,0.13
2014-10-26,47.1,40.7,37.0,37.4,34.2,31.5,90,78,58,30.16,29.90,28,9,28,0.00
2014-10-27,52.2,42.3,33.7,36.8,33.7,31.1,91,73,47,30.19,30.07,21,6,23,0.00
2014-10-28,57.3,48.2,41.6,47.0,39.7,33.9,93,73,53,30.09,29.96,32,10,32,0.02
2014-10-29,55.4,50.4,45.6,46.9,43.5,38.4,93,77,64,30.15,30.04,24,6,24,0.01
2014-10-30,63.9,52.7,47.1,50.2,47.1,44.1,96,83,57,30.04,29.72,13,4,14,0.14
2014-10-31,48.2,44.3,39.6,46.6,40.5,36.0,96,87,74,29.79,29.65,20,5,22,0.28
2014-11-1,46.4,39.3,32.0,36.5,32.2,28.1,93,77,50,30.06,29.73,27,6,28,0.00
2014-11-2,50.8,38.9,31.1,38.5,33.3,28.4,93,81,55,30.23,30.06,21,6,21,0.01
2014-11-3,52.9,45.8,41.1,43.3,39.4,35.9,85,78,69,30.24,30.16,24,10,27,0.00
2014-11-4,53.1,48.4,44.3,47.8,44.1,38.8,92,85,74,30.29,30.11,29,11,32,0.00
2014-11-5,62.1,53.2,44.9,51.2,46.5,41.9,90,78,66,30.29,30.03,28,9,29,0.00
2014-11-6,62.4,53.2,44.1,46.5,42.2,35.9,76,67,48,30.22,29.94,31,10,35,0.00
2014-11-7,54.4,43.3,34.5,39.0,35.1,31.0,92,74,44,30.37,30.21,13,4,14,0.00
2014-11-8,66.3,49.2,35.5,46.2,39.5,31.8,89,72,41,30.35,30.07,27,9,29,0.00
2014-11-9,58.6,48.7,34.4,44.5,37.4,28.3,84,66,38,30.07,29.76,38,12,43,0.00
2014-11-10,44.6,35.7,29.7,32.9,27.8,22.4,89,73,51,30.13,29.94,16,5,17,0.00
2014-11-11,32.7,25.8,15.5,23.2,16.8,4.3,77,68,59,30.40,30.12,24,8,24,0.00
2014-11-12,22.9,16.4,9.4,9.5,6.5,2.9,76,65,55,30.47,30.30,14,5,15,0.00
2014-11-13,22.1,17.2,13.9,20.0,14.5,8.7,94,89,68,30.30,30.10,6,2,10,0.00
2014-11-14,26.0,19.5,13.2,24.8,17.4,10.3,95,92,88,30.37,30.07,9,2,10,0.00
2014-11-15,19.9,12.7,3.8,15.4,9.7,0.6,92,88,78,30.77,30.37,10,2,11,0.05
2014-11-16,30.6,17.2,5.9,23.3,13.1,2.8,92,84,72,30.77,30.65,11,3,11,0.01
2014-11-17,33.2,21.5,10.0,24.6,17.2,6.9,94,84,67,30.67,30.44,12,4,12,0.02
2014-11-18,43.0,30.6,20.3,31.2,23.8,17.7,91,77,51,30.45,30.23,20,5,20,0.09
2014-11-19,38.6,32.1,24.9,35.9,26.7,22.4,96,81,60,30.24,30.00,20,3,22,0.06
2014-11-20,45.2,40.2,35.3,37.3,35.9,33.4,94,85,72,30.09,29.97,20,6,22,0.00
2014-11-21,43.7,39.2,35.9,42.4,36.8,33.2,95,91,84,30.00,29.58,32,12,42,0.72
2014-11-22,44.9,37.0,33.2,42.4,33.7,28.5,96,88,72,30.25,29.65,35,8,35,0.33
2014-11-23,44.3,38.6,34.3,32.4,30.9,27.4,86,74,52,30.36,30.25,30,11,35,0.01
2014-11-24,49.0,40.8,33.9,42.8,32.9,28.5,89,74,55,30.44,30.31,32,11,32,0.00
2014-11-25,52.9,48.9,45.6,44.7,42.8,39.4,90,79,68,30.35,30.28,27,11,29,0.00
2014-11-26,56.0,49.5,38.5,40.4,37.0,33.3,89,63,51,30.24,30.05,30,10,35,0.00
2014-11-27,49.4,46.0,43.2,42.7,38.8,31.9,90,77,52,30.05,29.83,38,14,46,0.26
2014-11-28,45.4,41.9,36.9,40.6,38.3,35.3,95,87,71,29.87,29.50,42,17,46,0.61
2014-11-29,39.4,33.5,25.4,35.9,26.4,20.7,94,76,53,30.06,29.51,35,8,35,0.04
2014-11-30,25.9,23.5,21.1,22.0,20.9,19.6,94,90,82,30.16,30.05,11,4,11,0.00
2014-12-1,38.7,35.5,0.0,37.1,33.6,0.0,95,92,80,30.19,30.10,21,10,23,0.16
2014-12-2,39.7,28.2,19.2,37.6,27.1,17.8,97,95,90,30.16,30.03,15,4,16,0.00
2014-12-3,25.6,21.3,18.1,24.5,19.9,16.4,96,94,93,30.06,29.97,4,1,5,0.00
2014-12-4,46.8,38.7,25.2,43.1,36.9,24.2,98,93,85,30.03,29.95,13,4,15,0.18
2014-12-5,49.3,38.8,29.9,42.5,36.0,28.9,97,90,75,30.05,29.91,16,4,17,0.01
2014-12-6,48.2,39.1,30.2,37.2,33.5,29.5,98,81,60,30.29,29.91,25,7,27,0.07
2014-12-7,49.6,39.2,30.7,38.8,34.4,28.8,94,84,65,30.28,30.13,16,5,19,0.00
2014-12-8,51.9,45.9,36.0,43.6,40.1,33.6,94,81,70,30.16,30.02,19,7,23,0.00
2014-12-9,52.4,47.9,45.9,45.0,42.7,40.6,93,82,74,30.04,29.88,25,7,30,0.03
2014-12-10,53.4,47.9,42.7,43.4,39.6,35.7,87,73,56,29.88,29.42,44,12,45,0.05
2014-12-11,52.3,44.7,39.7,41.8,38.1,35.8,92,78,59,29.58,29.18,43,12,56,0.13
2014-12-12,41.0,37.0,31.2,38.0,34.9,29.4,96,92,85,30.06,29.57,13,3,14,0.13
2014-12-13,42.7,33.4,28.7,32.1,28.6,26.0,93,83,60,30.25,30.06,15,6,16,0.00
2014-12-14,43.1,31.0,24.5,29.1,25.6,22.2,94,81,50,30.24,30.08,17,4,18,0.00
2014-12-15,33.9,28.5,25.9,31.2,27.3,24.9,97,95,89,30.10,29.96,9,2,10,0.03
2014-12-16,42.6,31.5,26.9,34.6,29.2,25.9,97,91,72,29.96,29.89,14,2,22,0.01
2014-12-17,43.7,34.0,27.6,36.4,31.8,26.9,97,92,74,30.03,29.88,19,4,19,0.01
2014-12-18,45.2,38.9,34.0,37.1,34.3,32.0,94,84,69,30.04,29.89,27,8,28,0.02
2014-12-19,43.7,37.6,35.4,36.2,34.0,30.7,94,87,66,30.03,29.90,23,7,23,0.09
2014-12-20,45.1,38.6,35.0,43.9,37.2,33.5,96,95,92,29.96,29.75,39,13,41,1.52
2014-12-21,46.9,44.0,40.2,45.1,42.2,38.4,97,94,84,30.13,29.82,21,6,24,0.31
2014-12-22,48.1,41.1,36.2,42.3,38.0,34.4,97,89,69,30.36,30.08,16,4,18,0.00
2014-12-23,51.9,43.4,38.2,43.5,39.5,36.3,94,87,72,30.35,30.02,28,10,29,0.01
2014-12-24,43.6,41.9,39.5,38.5,37.7,37.0,92,85,81,30.01,29.65,27,11,31,0.00
2014-12-25,35.8,33.0,28.4,29.9,25.7,23.7,87,74,63,30.28,30.17,23,6,24,0.01
2014-12-26,38.4,29.9,23.9,27.8,24.1,20.8,89,79,61,30.41,30.26,15,5,15,0.00
2014-12-27,40.2,31.1,23.9,33.3,26.3,21.1,91,83,70,30.40,30.18,39,13,39,0.00
2014-12-28,38.0,33.1,28.6,30.6,24.8,19.7,88,72,51,30.25,30.13,23,6,28,0.00
2014-12-29,34.9,22.7,12.7,32.5,20.4,8.9,96,91,79,30.67,30.12,37,10,37,0.00
2014-12-30,12.6,7.6,-1.0,9.0,3.2,-4.7,88,82,75,30.94,30.67,24,8,26,0.00
2014-12-31,24.5,10.5,0.5,13.5,4.5,-3.3,89,77,57,30.91,30.62,23,6,23,0.02
2015-1-1,31.9,18.4,6.5,22.0,10.6,2.5,90,72,53,30.62,30.40,13,4,15,0.01
2015-1-2,46.4,32.3,15.7,33.6,25.2,12.0,90,76,56,30.40,30.18,30,8,37,0.01